Location: Joplin
(37.0842°N, 94.5131°W)
Time: 22:54:58
(UTC-06:00)

M-CUBED/EXP-1 PRIME - Visible Passes

Search period start: 21 November 2019 00:00
Search period end: 01 December 2019 00:00
Orbit: 429 x 668 km, 101.7° (Epoch: 21 November)

Date Brightness Start Highest point End Pass type
(mag) Time Alt. Az. Time Alt. Az. Time Alt. Az.
21 Nov ? 03:34:07 10° ENE 03:35:18 11° E 03:35:18 11° E visible
21 Nov ? 05:05:36 10° N 05:10:06 66° WNW 05:11:03 51° SW visible
22 Nov ? 05:00:55 10° NNE 05:05:28 79° WNW 05:07:16 37° SSW visible
23 Nov ? 04:56:16 10° NNE 05:00:51 88° ESE 05:05:25 10° SSW visible
24 Nov ? 04:51:38 10° NNE 04:56:12 75° ESE 05:00:46 10° SSW visible
24 Nov ? 06:28:12 10° NW 06:29:50 12° WNW 06:31:27 10° W visible
25 Nov ? 04:47:00 10° NNE 04:51:33 62° ESE 04:56:05 10° S visible
25 Nov ? 06:22:58 10° NNW 06:25:16 14° WNW 06:27:33 10° W visible
26 Nov ? 04:42:25 10° NNE 04:46:54 52° ESE 04:51:20 10° S visible
26 Nov ? 06:17:54 10° NNW 06:20:41 16° WNW 06:23:28 10° W visible
27 Nov ? 04:37:50 10° NNE 04:42:14 44° ESE 04:46:34 10° S visible
27 Nov ? 06:12:55 10° NNW 06:16:06 19° WNW 06:19:15 10° WSW visible
28 Nov ? 04:33:17 10° NE 04:37:33 37° ESE 04:41:44 10° S visible
28 Nov ? 06:08:01 10° NNW 06:11:30 22° WNW 06:14:58 10° WSW visible
29 Nov ? 04:28:47 10° NE 04:32:52 31° ESE 04:36:52 10° SSE visible
29 Nov ? 06:03:10 10° N 06:06:54 25° WNW 06:10:36 10° WSW visible
30 Nov ? 04:24:18 10° NE 04:28:09 26° E 04:31:55 10° SSE visible
30 Nov ? 05:58:20 10° N 06:02:17 29° WNW 06:06:11 10° SW visible
